Location: Suzhou
(31.3110°N, 120.6180°E)
Time: 19:58:00
(UTC+08:00)

Hubble Space Telescope - Pass Details

Date: 05 March 2024
Orbit: 513 x 517 km, 28.5° (Epoch: 23 April)

Event Time Altitude Azimuth Distance (km) Brightness Sun altitude
Rises 18:45:48 0° 269° (W) 2,628 6.6 -10.9°
Reaches altitude 10° 18:48:17 10° 256° (WSW) 1,741 4.8 -11.4°
Maximum altitude 18:51:41 26° 198° (SSW) 1,031 2.4 -12.1°
Drops below altitude 10° 18:55:06 10° 140° (SE) 1,741 3.0 -12.8°
Enters shadow 18:55:13 - 139° (SE) 1,783 3.0 -12.9°
